TimeEDT,TemperatureF,Dew PointF,Humidity,Sea Level PressureIn,VisibilityMPH,Wind Direction,Wind SpeedMPH,Gust SpeedMPH,PrecipitationIn,Events,Conditions,WindDirDegrees,DateUTC
12:15 AM,59.0,57.4,94,30.17,10.0,Calm,Calm,-,N/A,,Clear,0,2013-04-18 04:15:00
12:35 AM,59.2,57.6,94,30.16,10.0,Calm,Calm,-,N/A,,Clear,0,2013-04-18 04:35:00
12:55 AM,57.9,56.7,96,30.15,10.0,Calm,Calm,-,N/A,,Clear,0,2013-04-18 04:55:00
1:15 AM,57.2,56.3,97,30.15,7.0,Calm,Calm,-,N/A,,Clear,0,2013-04-18 05:15:00
1:35 AM,57.7,56.5,96,30.14,10.0,Calm,Calm,-,N/A,,Clear,0,2013-04-18 05:35:00
1:55 AM,57.2,56.3,97,30.15,10.0,Calm,Calm,-,N/A,,Mostly Cloudy,0,2013-04-18 05:55:00
2:15 AM,57.7,56.7,96,30.15,10.0,Calm,Calm,-,N/A,,Overcast,0,2013-04-18 06:15:00
2:35 AM,59.0,57.9,96,30.15,10.0,Calm,Calm,-,N/A,,Overcast,0,2013-04-18 06:35:00
2:55 AM,58.8,57.6,96,30.15,10.0,Calm,Calm,-,N/A,,Mostly Cloudy,0,2013-04-18 06:55:00
3:15 AM,58.5,57.4,96,30.15,10.0,Calm,Calm,-,N/A,,Scattered Clouds,0,2013-04-18 07:15:00
3:35 AM,57.2,55.9,96,30.14,10.0,Calm,Calm,-,N/A,,Mostly Cloudy,0,2013-04-18 07:35:00
3:55 AM,57.2,56.1,96,30.15,10.0,Calm,Calm,-,N/A,,Mostly Cloudy,0,2013-04-18 07:55:00
4:15 AM,57.2,56.1,96,30.15,7.0,Calm,Calm,-,N/A,,Mostly Cloudy,0,2013-04-18 08:15:00
4:35 AM,57.2,56.3,97,30.15,10.0,Calm,Calm,-,N/A,,Overcast,0,2013-04-18 08:35:00
4:55 AM,57.4,56.3,96,30.15,10.0,Calm,Calm,-,N/A,,Overcast,0,2013-04-18 08:55:00
5:15 AM,57.7,56.7,96,30.15,10.0,Calm,Calm,-,N/A,Rain,Light Rain,0,2013-04-18 09:15:00
5:35 AM,57.7,56.8,97,30.15,10.0,Calm,Calm,-,N/A,,Overcast,0,2013-04-18 09:35:00
5:55 AM,58.3,57.4,97,30.16,10.0,Calm,Calm,-,N/A,,Overcast,0,2013-04-18 09:55:00
6:15 AM,58.3,57.4,97,30.16,10.0,Calm,Calm,-,N/A,,Mostly Cloudy,0,2013-04-18 10:15:00
6:35 AM,57.7,57.0,97,30.17,7.0,Calm,Calm,-,N/A,,Mostly Cloudy,0,2013-04-18 10:35:00
6:55 AM,58.1,57.6,98,30.17,7.0,Calm,Calm,-,N/A,,Overcast,0,2013-04-18 10:55:00
7:15 AM,59.0,58.1,97,30.18,7.0,Calm,Calm,-,N/A,,Overcast,0,2013-04-18 11:15:00
7:35 AM,59.7,58.8,97,30.19,7.0,Calm,Calm,-,N/A,,Mostly Cloudy,0,2013-04-18 11:35:00
7:55 AM,61.0,59.9,96,30.20,10.0,SE,3.5,-,N/A,,Overcast,140,2013-04-18 11:55:00
8:15 AM,62.6,60.4,93,30.20,10.0,SSE,3.5,-,N/A,,Overcast,150,2013-04-18 12:15:00
8:35 AM,64.4,60.8,88,30.20,10.0,SSE,4.6,-,N/A,,Overcast,150,2013-04-18 12:35:00
8:55 AM,64.4,60.8,88,30.20,10.0,SE,3.5,-,N/A,Rain,Light Rain,140,2013-04-18 12:55:00
9:15 AM,67.1,61.3,82,30.20,10.0,Calm,Calm,-,N/A,,Mostly Cloudy,0,2013-04-18 13:15:00
9:35 AM,69.8,60.8,73,30.20,10.0,SSW,4.6,-,N/A,,Scattered Clouds,200,2013-04-18 13:35:00
9:55 AM,70.3,59.5,69,30.20,10.0,WSW,5.8,-,N/A,,Mostly Cloudy,240,2013-04-18 13:55:00
10:15 AM,72.9,59.9,64,30.19,10.0,SSW,4.6,-,N/A,,Scattered Clouds,210,2013-04-18 14:15:00
10:35 AM,73.2,59.2,61,30.20,10.0,SSW,4.6,-,N/A,,Mostly Cloudy,210,2013-04-18 14:35:00
10:55 AM,73.6,58.8,60,30.20,10.0,SSW,4.6,-,N/A,,Overcast,200,2013-04-18 14:55:00
11:15 AM,75.0,58.8,57,30.19,10.0,South,5.8,-,N/A,,Overcast,190,2013-04-18 15:15:00
11:35 AM,74.3,57.7,56,30.20,10.0,SW,5.8,-,N/A,,Overcast,220,2013-04-18 15:35:00
11:55 AM,73.9,57.4,56,30.18,10.0,SSW,4.6,-,N/A,,Overcast,210,2013-04-18 15:55:00
12:15 PM,74.8,57.4,54,30.18,10.0,SSW,4.6,-,N/A,,Overcast,200,2013-04-18 16:15:00
12:35 PM,76.3,59.0,55,30.17,10.0,SSW,3.5,-,N/A,,Overcast,210,2013-04-18 16:35:00
12:55 PM,76.5,59.0,55,30.17,10.0,SSE,8.1,-,N/A,,Mostly Cloudy,160,2013-04-18 16:55:00
1:15 PM,75.2,59.0,57,30.16,10.0,South,5.8,-,N/A,,Overcast,180,2013-04-18 17:15:00
1:35 PM,76.6,60.3,57,30.15,10.0,SSE,9.2,-,N/A,,Overcast,150,2013-04-18 17:35:00
1:55 PM,76.6,59.5,55,30.14,10.0,South,4.6,-,N/A,,Mostly Cloudy,190,2013-04-18 17:55:00
2:15 PM,76.8,59.4,55,30.14,10.0,South,5.8,-,N/A,,Mostly Cloudy,190,2013-04-18 18:15:00
2:35 PM,79.3,57.6,47,30.14,10.0,South,6.9,-,N/A,,Mostly Cloudy,190,2013-04-18 18:35:00
2:55 PM,78.4,56.3,46,30.13,10.0,SSW,9.2,16.1,N/A,,Mostly Cloudy,200,2013-04-18 18:55:00
3:15 PM,80.1,55.8,43,30.11,10.0,SSE,10.4,16.1,N/A,,Scattered Clouds,150,2013-04-18 19:15:00
3:35 PM,77.0,55.4,47,30.11,10.0,South,6.9,-,N/A,,Mostly Cloudy,170,2013-04-18 19:35:00
3:55 PM,77.0,55.4,47,30.10,10.0,South,6.9,-,N/A,,Mostly Cloudy,180,2013-04-18 19:55:00
4:35 PM,78.8,54.0,42,30.09,10.0,SSW,6.9,-,N/A,,Mostly Cloudy,200,2013-04-18 20:35:00
4:55 PM,77.2,53.8,44,30.09,10.0,SSW,8.1,-,N/A,,Mostly Cloudy,210,2013-04-18 20:55:00
5:15 PM,79.0,51.6,38,30.08,10.0,South,5.8,20.7,N/A,,Mostly Cloudy,180,2013-04-18 21:15:00
5:35 PM,79.7,54.0,41,30.07,10.0,Calm,Calm,-,N/A,,Mostly Cloudy,0,2013-04-18 21:35:00
5:55 PM,80.1,53.1,39,30.06,10.0,South,6.9,-,N/A,,Mostly Cloudy,190,2013-04-18 21:55:00
6:15 PM,78.6,53.1,41,30.06,10.0,South,8.1,-,N/A,,Scattered Clouds,180,2013-04-18 22:15:00
6:35 PM,78.3,53.6,42,30.05,10.0,South,6.9,-,N/A,,Scattered Clouds,180,2013-04-18 22:35:00
6:55 PM,77.0,53.6,44,30.05,10.0,South,5.8,-,N/A,,Scattered Clouds,170,2013-04-18 22:55:00
7:15 PM,76.1,54.7,47,30.05,10.0,South,3.5,-,N/A,,Clear,190,2013-04-18 23:15:00
7:35 PM,73.9,54.7,51,30.04,10.0,Calm,Calm,-,N/A,,Clear,0,2013-04-18 23:35:00
7:55 PM,73.0,55.2,53,30.04,10.0,Calm,Calm,-,N/A,,Scattered Clouds,0,2013-04-18 23:55:00
8:15 PM,72.1,55.6,56,30.04,10.0,Calm,Calm,-,N/A,,Mostly Cloudy,0,2013-04-19 00:15:00
8:35 PM,71.1,55.8,58,30.04,10.0,SSE,4.6,-,N/A,,Overcast,150,2013-04-19 00:35:00
8:55 PM,70.7,56.5,61,30.04,10.0,SSE,3.5,-,N/A,,Overcast,160,2013-04-19 00:55:00
9:15 PM,70.0,56.8,63,30.03,10.0,SSE,4.6,-,N/A,,Overcast,150,2013-04-19 01:15:00
9:35 PM,70.5,57.4,63,30.04,10.0,South,3.5,-,N/A,,Mostly Cloudy,170,2013-04-19 01:35:00
11:35 PM,69.8,57.6,65,30.03,10.0,South,3.5,-,N/A,,Mostly Cloudy,170,2013-04-19 03:35:00
11:55 PM,69.8,57.4,65,30.02,10.0,South,9.2,19.6,N/A,,Mostly Cloudy,180,2013-04-19 03:55:00